This is the latest recevied weather packets stored in our database for station/object IZ1MEU-13. If no packets are shown the sender has not sent any weather packets the latest 10 day(s).
| Time | Temp. | Humidity | Pressure | Rain* | Wind** | Luminosity | Snow |
|---|---|---|---|---|---|---|---|
| 1778007748 | 11.11° C | 63% | 1014.5 hPa | - | - | - | - |
| 1778006544 | 11.67° C | 62% | 1014.5 hPa | - | - | - | - |
| 1778005339 | 12.22° C | 61% | 1014.5 hPa | - | - | - | - |
| 1778004135 | 12.22° C | 61% | 1014.5 hPa | - | - | - | - |
| 1778002931 | 12.22° C | 62% | 1014.4 hPa | - | - | - | - |
| 1778002566 | 12.22° C | 61% | 1014.5 hPa | - | - | - | - |
| 1778001362 | 12.22° C | 61% | 1014.5 hPa | - | - | - | - |
| 1778000157 | 12.78° C | 59% | 1014.5 hPa | - | - | - | - |
| 1777998953 | 12.78° C | 59% | 1014.6 hPa | - | - | - | - |
| 1777997749 | 13.33° C | 58% | 1014.6 hPa | - | - | - | - |
| 1777996545 | 13.89° C | 58% | 1014.6 hPa | - | - | - | - |
| 1777995340 | 13.89° C | 57% | 1014.7 hPa | - | - | - | - |
| 1777994136 | 13.89° C | 58% | 1014.7 hPa | - | - | - | - |
| 1777992932 | 13.89° C | 57% | 1014.8 hPa | - | - | - | - |
| 1777991728 | 13.33° C | 58% | 1014.9 hPa | - | - | - | - |
| 1777990524 | 13.33° C | 59% | 1015.1 hPa | - | - | - | - |
| 1777989320 | 12.78° C | 59% | 1015.1 hPa | - | - | - | - |
| 1777988116 | 13.33° C | 59% | 1015.2 hPa | - | - | - | - |
| 1777986913 | 13.33° C | 59% | 1015.4 hPa | - | - | - | - |
| 1777985709 | 12.78° C | 60% | 1015.3 hPa | - | - | - | - |
| 1777984505 | 12.78° C | 60% | 1015.5 hPa | - | - | - | - |
| 1777983301 | 12.22° C | 59% | 1015.5 hPa | - | - | - | - |
| 1777982097 | 13.33° C | 57% | 1015.6 hPa | - | - | - | - |
| 1777980894 | 13.33° C | 58% | 1015.5 hPa | - | - | - | - |
| 1777979690 | 13.33° C | 58% | 1015.7 hPa | - | - | - | - |
* Rain since midnight (hover to see other rain measurements)
** Current wind speed in m/s (hover to see current wind gust speed)